Loisir ou Compétition : Rejoignez un Club de la Fédération

Résultats

RESULTAT MICRO COUPE LES CRISTAUX - ANNEE 2006

ALPE D'HUEZ

CR Hommes

Jury de Compétition

Délégué Technique :
 
Arbitre :
 
Assistant :
 
Dir. Epreuve :
 

Caractéristiques de la Piste

Piste :
STADE DES PARCS
Départ :
 
Arrivée :
 
Dénivelé :
 
Homologation :
2799/12/11

Manche 1

Nombre de Portes :
30
Heure de Départ :
 
Traceur :
 
Ouvreurs A :
 
Ouvreurs B :
 
Ouvreurs C :
 
Ouvreurs D :
 
Ouvreurs E :
 
Temps :
 
Neige :
 

Manche 2

Nombre de Portes :
29
Heure de Départ :
 
Traceur :
BERNE FREDERIC (DA)
Ouvreurs A :
 
Ouvreurs B :
 
Ouvreurs C :
 
Ouvreurs D :
 
Ouvreurs E :
 
Température Départ :
 
Température Arrivée :
 

Pénalité Appliquée :
 

Catégorie :
U12
Clt Dos Clt/Cat Code An Nom Prénom Com Club Tps M1 Tps M2 Tps Tot Pts
Classés
1 85 1/U12 FFS2678548 2006 GARCIN MAXENCE DA ESF ALPE D'H 51.03 48.61 1:39.64
2 96 2/U12 FFS2667584 2006 RIU NATHAN DA SC ALPE HUEZ 52.57 47.59 1:40.16
3 60 3/U12 FFS2682862 2006 PASCAL TITOUAN DA SC VAUJANY 51.47 48.99 1:40.46
4 42 4/U12 FFS2666238 2006 SCHANDENE ANDY DA SC ALPE HUEZ 51.28 49.26 1:40.54
5 54 5/U12 FFS2672861 2006 DELHALLE JULES DA SC ALPE HUEZ 52.88 48.23 1:41.11
6 45 6/U12 FFS2669118 2006 SELME YLLAN DA GUC GRENOBLE 52.33 49.32 1:41.65
7 83 7/U12 FFS2676461 2006 MEYRIEUX DREVET NANS DA CO 7 LAUX GR 53.69 48.76 1:42.45
8 58 8/U12 FFS2669816 2006 GIRAUD OSCAR DA VILLARDELANS 53.82 48.80 1:42.62
9 68 9/U12 FFS2667815 2006 CAUDAN EVAN DA SC ALPE HUEZ 51.97 50.66 1:42.63
10 64 10/U12 FFS2673104 2006 FLAMAND PAUL DA VILL.RECULAS 52.86 49.97 1:42.83
11 73 11/U12 FFS2678991 2006 LLORACH LEO DA SC ALPE HUEZ 52.72 50.19 1:42.91
12 76 12/U12 FFS2674187 2006 LUPPINO ARTHUR DA CS ST PIERRE 53.95 49.12 1:43.07
13 93 13/U12 FFS2675572 2006 COLLOMB CLERC ETHAN DA CHAMROUSSE S 53.34 49.96 1:43.30
14 91 14/U12 FFS2678956 2006 POMMERAY JULES DA GUC GRENOBLE 54.92 48.59 1:43.51
15 57 15/U12 FFS2676805 2006 PELTIER MARTIN DA SC ALPE HUEZ 52.95 50.70 1:43.65
16 62 16/U12 FFS2666605 2006 MELONI FRANCOIS DA ESF ALPE D'H 54.24 49.43 1:43.67
17 87 17/U12 FFS2672191 2006 TALBOT HEROUARD SAMAEL DA CHAMROUSSE S 54.14 49.64 1:43.78
18 104 18/U12 FFS2671547 2006 DUTRIEVOZ TOINON DA SA MEAUDRAIS 55.21 49.63 1:44.84
19 105 19/U12 FFS2678546 2006 POINTDAVOINE ROMAIN DA SC VAUJANY 54.32 50.83 1:45.15
20 92 20/U12 FFS2686707 2006 AUBERT ELOUAN DA GUC GRENOBLE 55.69 49.51 1:45.20
21 110 21/U12 FFS2677124 2006 CARBONE ARTHUR DA LANS VERCORS 55.02 50.76 1:45.78
22 50 22/U12 FFS2686998 2006 EYMERY LOUISON DA SC VAUJANY 53.25 52.54 1:45.79
23 97 23/U12 FFS2677464 2006 MICHELLAND MAXIME DA GUC GRENOBLE 54.13 51.69 1:45.82
24 61 24/U12 FFS2675116 2006 DUFRENEY THIBO DA GUC GRENOBLE 55.30 51.17 1:46.47
25 80 25/U12 FFS2678916 2006 MERLIN MAHOT CLEMENT DA ESF ALPE D'H 56.30 50.24 1:46.54
26 56 26/U12 FFS2691736 2006 ANNE GABRIEL DA CHAMROUSSE S 56.23 50.66 1:46.89
27 109 27/U12 FFS2682063 2006 FRANC TRISTAN DA US AUTRANNAI 55.45 51.47 1:46.92
28 44 28/U12 FFS2681029 2006 LEGELEUX MATHIEU DA CHAMROUSSE S 55.23 51.83 1:47.06
29 55 29/U12 FFS2676803 2006 LAMBERSEND MAXENCE DA ESF ALPE D'H 54.27 53.01 1:47.28
30 74 30/U12 FFS2680601 2006 NAUDON POL LOU DA VILLARDELANS 55.38 52.18 1:47.56
31 89 31/U12 FFS2677797 2006 METRICH BLAISE DA ESF ALPE D'H 55.99 51.64 1:47.63
32 43 32/U12 FFS2679744 2006 MOUNIER MARCEAU DA GUC GRENOBLE 54.86 52.84 1:47.70
33 88 33/U12 FFS2676295 2006 ARANEGA HUGO DA CO 7 LAUX GR 55.91 51.95 1:47.86
34 78 34/U12 FFS2683236 2006 LACOURT LUCAS DA US AUTRANNAI 55.58 52.39 1:47.97
35 59 35/U12 FFS2683111 2006 MATHON DORIAN DA ESF ALPE D'H 55.00 53.43 1:48.43
36 107 36/U12 FFS2677955 2006 RANCHIN ELIAN DA CO 7 LAUX GR 56.36 52.08 1:48.44
37 65 37/U12 FFS2685454 2006 HERODIN THEOLE DA SC ALLEVARDI 55.41 53.07 1:48.48
38 94 38/U12 FFS2680453 2006 WEBER LOUIS DA CO 7 LAUX GR 55.86 52.79 1:48.65
39 84 39/U12 FFS2690008 2006 FAUCHE SEBASTIEN DA CS ST PIERRE 56.47 53.02 1:49.49
40 101 40/U12 FFS2691742 2006 JARRY MATHIEU DA CHAMROUSSE S 57.23 52.42 1:49.65
41 51 41/U12 FFS2671014 2006 MATRAY MAXIME DA CS AURIS 55.40 54.57 1:49.97
42 77 42/U12 FFS2663730 2006 PELLET FAOLAN DA SC VAUJANY 57.47 52.77 1:50.24
43 90 43/U12 FFS2667033 2006 FERRAND AUGUSTE DA CO 7 LAUX GR 57.28 53.06 1:50.34
44 106 44/U12 FFS2671016 2006 CUSSET HENRI DA CS AURIS 57.91 53.50 1:51.41
45 79 45/U12 FFS2675573 2006 GAILLY NOE DA CHAMROUSSE S 57.75 53.67 1:51.42
46 70 46/U12 FFS2676370 2006 DECROO TIJANI DA CO 7 LAUX GR 57.22 54.79 1:52.01
47 66 47/U12 FFS2676464 2006 RIONDET GASPARD DA CO 7 LAUX GR 57.26 54.93 1:52.19
48 102 48/U12 FFS2689151 2006 LARUE JOAN DA SC OZ-ALLEMO 59.68 52.58 1:52.26
49 48 49/U12 FFS2685576 2006 GREFFIOZ THOMAS DA VILLARDELANS 53.87 59.80 1:53.67
49 69 49/U12 FFS2676136 2006 CABART CILIEN DA VOIRON SKI M 58.18 55.49 1:53.67
51 82 51/U12 FFS2681757 2006 ZANARDI NOE DA VOIRON SKI M 59.40 54.48 1:53.88
52 86 52/U12 FFS2691641 2006 ROGERSON RUARIDH DA SC VAUJANY 59.30 54.82 1:54.12
53 99 53/U12 FFS2681753 2006 ECHANTILLON REMI DA VOIRON SKI M 57.78 56.38 1:54.16
54 52 54/U12 FFS2687251 2006 RONZON LILIAN DA VOIRON SKI M 1:00.91 53.44 1:54.35
55 49 55/U12 FFS2673103 2006 KABWE CHARLES DA VILL.RECULAS 58.95 55.68 1:54.63
56 41 56/U12 FFS2679947 2006 CAZORLA ANGE DA LANS VERCORS 57.76 57.19 1:54.95
57 63 57/U12 FFS2685385 2006 BEAUDOING EMILE DA VILLARDELANS 59.27 55.77 1:55.04
58 47 58/U12 FFS2684639 2006 BARRAL BARON LOUIS DA CS ST PIERRE 57.86 57.24 1:55.10
59 98 59/U12 FFS2681759 2006 BRINSTER AURELE DA VOIRON SKI M 1:00.69 54.77 1:55.46
60 112 60/U12 FFS2676681 2006 GERVAISE IBAN DA CS CORRENCON 59.39 58.49 1:57.88
61 72 61/U12 FFS2694046 2006 TARDY COME DA CO 7 LAUX GR 1:02.07 57.63 1:59.70
62 71 62/U12 FFS2678189 2006 BEDOUET THEO DA ESF ALPE D'H 1:04.18 58.94 2:03.12
63 108 63/U12 FFS2678549 2006 SOULIER ARTHUR DA ESF ALPE D'H 1:05.27 59.98 2:05.25
64 81 64/U12 FFS2694203 2006 SOLINAS ILAN DA VOIRON SKI M 1:04.95 1:00.66 2:05.61
65 46 65/U12 FFS2686937 2006 CHARRIER QUENTIN DA US AUTRANNAI 1:04.69 1:01.91 2:06.60
66 100 66/U12 FFS2687261 2006 REMBAUD TIMOTHE DA VOIRON SKI M 1:07.91 1:04.90 2:12.81
67 53 67/U12 FFS2688709 2006 GEOFFROY TOM DA SC OZ-ALLEMO 1:08.95 1:04.02 2:12.97
Abandons
95 FFS2667850 2006 PELISSARD EVAN DA CHAMROUSSE S 51.57
111 FFS2678545 2006 GARDE DORIAN DA SC ALPE HUEZ 53.27
Non partants
67 FFS2676438 2006 LAGARDE LUKE DA ESF ALPE D'H
75 FFS2676802 2006 GERACI ENZO DA ESF ALPE D'H
103 FFS2681039 2006 CARBONE QUENTIN DA LANS VERCORS